N0JY-4 Weather Reports


Display with metric or nautical units.
time (UTC)temp
F
wind
direction
speed
MPH
gust
MPH
rain 1hr
in
rain 24hr
in
rain mn
in
humidity
%
barometer
mb
20171120094337 43 75 0.0 0.0 0.00 0.00 0.00 81 1022.2
20171120093601 43 75 0.0 0.0 0.00 0.00 0.00 81 1022.3
20171120092834 43 56 0.0 0.0 0.00 0.00 0.00 81 1022.1
20171120092108 43 86 1.0 1.0 0.00 0.00 0.00 81 1022.0
20171120091340 42 103 2.0 2.0 0.00 0.00 0.00 81 1022.1
20171120090608 42 28 0.0 0.0 0.00 0.00 0.00 79 1022.1
20171120085836 42 70 2.0 1.0 0.00 0.00 0.00 80 1022.1
20171120085112 42 53 2.0 2.0 0.00 0.00 0.00 79 1022.1
20171120084343 43 63 3.0 3.0 0.00 0.00 0.00 75 1022.1
20171120082843 43 14 0.0 0.0 0.00 0.00 0.00 75 1022.4
20171120082116 43 14 0.0 0.0 0.00 0.00 0.00 75 1022.4
20171120081348 43 14 0.0 0.0 0.00 0.00 0.00 75 1022.3
20171120080615 43 14 0.0 0.0 0.00 0.00 0.00 75 1022.4
20171120075849 43 14 0.0 0.0 0.00 0.00 0.00 75 1022.3
20171120075123 43 14 0.0 0.0 0.00 0.00 0.00 76 1022.5
20171120074354 42 14 0.0 0.0 0.00 0.00 0.00 78 1022.5
20171120073623 42 13 2.0 1.0 0.00 0.00 0.00 78 1022.6
20171120072857 43 25 2.0 2.0 0.00 0.00 0.00 75 1022.7
20171120072130 44 34 2.0 2.0 0.00 0.00 0.00 72 1022.6
20171120071404 44 63 3.0 2.0 0.00 0.00 0.00 71 1022.8
20171120070632 44 52 1.0 2.0 0.00 0.00 0.00 72 1022.8
20171120065905 44 45 1.0 2.0 0.00 0.00 0.00 71 1023.0
20171120065139 44 53 1.0 2.0 0.00 0.00 0.00 73 1023.1
20171120064412 44 32 1.0 1.0 0.00 0.00 0.00 71 1023.3
20171120063640 45 349 1.0 2.0 0.00 0.00 0.00 71 1023.4
20171120062912 44 338 1.0 1.0 0.00 0.00 0.00 71 1023.4
20171120062144 44 340 1.0 1.0 0.00 0.00 0.00 73 1023.3
20171120060645 45 39 2.0 2.0 0.00 0.00 0.00 70 1023.3
20171120055917 45 45 3.0 3.0 0.00 0.00 0.00 70 1023.1
20171120055150 46 55 2.0 2.0 0.00 0.00 0.00 70 1023.3
20171120054423 46 62 3.0 3.0 0.00 0.00 0.00 70 1023.3
20171120053646 46 55 3.0 3.0 0.00 0.00 0.00 70 1023.3
20171120052919 46 59 4.0 3.0 0.00 0.00 0.00 70 1023.3
20171120052148 46 68 2.0 2.0 0.00 0.00 0.00 70 1023.4
20171120051420 46 68 2.0 3.0 0.00 0.00 0.00 71 1023.4
20171120050649 46 48 3.0 3.0 0.00 0.00 0.00 70 1023.4
20171120045924 46 65 3.0 2.0 0.00 0.00 0.00 69 1023.4
20171120045159 47 45 1.0 2.0 0.00 0.00 0.00 69 1023.5
20171120044428 47 69 2.0 2.0 0.00 0.00 0.00 68 1023.5
20171120043657 47 72 3.0 3.0 0.00 0.00 0.00 66 1023.5
20171120042204 48 53 0.0 0.0 0.00 0.00 0.00 65 1023.7
20171120041436 48 53 0.0 0.0 0.00 0.00 0.00 64 1023.6
20171120040705 49 53 0.0 0.0 0.00 0.00 0.00 64 1023.6
20171120035939 49 53 0.0 0.0 0.00 0.00 0.00 62 1023.6
20171120035208 49 53 0.0 0.0 0.00 0.00 0.00 62 1023.5
20171120034439 49 53 0.0 0.0 0.00 0.00 0.00 61 1023.6
20171120033708 49 63 3.0 2.0 0.00 0.00 0.00 61 1023.4
20171120032944 49 70 3.0 3.0 0.00 0.00 0.00 61 1023.3
20171120032215 49 53 3.0 3.0 0.00 0.00 0.00 61 1023.1
20171120031448 49 55 3.0 3.0 0.00 0.00 0.00 61 1023.4
20171120030715 49 68 3.0 4.0 0.00 0.00 0.00 62 1023.5
20171120025948 49 55 3.0 3.0 0.00 0.00 0.00 62 1023.5
20171120025218 49 62 3.0 3.0 0.00 0.00 0.00 62 1023.6
20171120024454 49 69 3.0 3.0 0.00 0.00 0.00 62 1023.6
20171120023720 50 56 3.0 2.0 0.00 0.00 0.00 61 1023.6
20171120022952 50 69 3.0 3.0 0.00 0.00 0.00 60 1023.7
20171120022221 50 72 2.0 3.0 0.00 0.00 0.00 60 1023.7
20171120021454 50 83 2.0 1.0 0.00 0.00 0.00 59 1023.8
20171120020722 51 107 0.0 0.0 0.00 0.00 0.00 57 1023.7
20171120015952 51 107 0.0 0.0 0.00 0.00 0.00 56 1023.5
20171120015226 51 107 0.0 0.0 0.00 0.00 0.00 56 1023.6
20171120014456 52 107 0.0 0.0 0.00 0.00 0.00 56 1023.6
20171120013725 51 107 0.0 0.0 0.00 0.00 0.00 56 1023.7
20171120012959 51 107 0.0 0.0 0.00 0.00 0.00 56 1023.7
20171120012231 51 107 0.0 0.0 0.00 0.00 0.00 56 1023.7
20171120011505 51 107 0.0 0.0 0.00 0.00 0.00 59 1023.6
20171120010729 51 107 0.0 0.0 0.00 0.00 0.00 61 1023.6
20171120010003 52 107 0.0 0.0 0.00 0.00 0.00 57 1023.6
20171120005231 53 107 0.0 0.0 0.00 0.00 0.00 55 1023.6
20171120004504 55 107 0.0 0.0 0.00 0.00 0.00 51 1023.6
20171120003732 55 107 0.0 0.0 0.00 0.00 0.00 48 1023.7
20171120003004 56 107 0.0 0.0 0.00 0.00 0.00 46 1023.6
20171120002237 56 107 0.0 0.0 0.00 0.00 0.00 46 1023.6
20171120001511 57 107 0.0 0.0 0.00 0.00 0.00 45 1023.6
20171120000738 57 107 0.0 0.0 0.00 0.00 0.00 44 1023.5
20171120000006 57 90 0.0 0.0 0.00 0.00 0.00 43 1023.5
20171119235240 57 90 1.0 0.0 0.00 0.00 0.00 43 1023.6
20171119234513 57 125 0.0 0.0 0.00 0.00 0.00 43 1023.5
20171119233739 58 152 3.0 2.0 0.00 0.00 0.00 42 1023.5
20171119233008 59 158 0.0 0.0 0.00 0.00 0.00 42 1023.5
20171119232241 60 158 0.0 0.0 0.00 0.00 0.00 41 1023.4
20171119231514 60 143 3.0 3.0 0.00 0.00 0.00 38 1023.5
20171119230744 61 148 2.0 2.0 0.00 0.00 0.00 38 1023.6
20171119230017 61 187 0.0 0.0 0.00 0.00 0.00 36 1023.5
20171119225247 62 187 0.0 0.0 0.00 0.00 0.00 36 1023.6
20171119224520 62 187 0.0 0.0 0.00 0.00 0.00 34 1023.6
20171119223748 62 187 0.0 0.0 0.00 0.00 0.00 35 1023.7
20171119223021 62 187 0.0 0.0 0.00 0.00 0.00 35 1023.7
20171119222255 62 187 0.0 0.0 0.00 0.00 0.00 32 1023.7
20171119220757 63 187 0.0 0.0 0.00 0.00 0.00 32 1023.8
20171119220027 63 187 0.0 0.0 0.00 0.00 0.00 31 1023.9
20171119215259 64 187 0.0 0.0 0.00 0.00 0.00 30 1024.0
20171119214533 64 187 0.0 0.0 0.00 0.00 0.00 30 1024.0
20171119213801 65 187 0.0 0.0 0.00 0.00 0.00 31 1024.1
20171119213034 64 242 3.0 2.0 0.00 0.00 0.00 30 1024.2
20171119212308 63 183 4.0 3.0 0.00 0.00 0.00 31 1024.2
20171119211541 64 224 0.0 0.0 0.00 0.00 0.00 31 1024.3
20171119210809 64 176 6.0 6.0 0.00 0.00 0.00 31 1024.3
20171119210043 64 194 3.0 1.0 0.00 0.00 0.00 32 1024.5
20171119205316 64 235 2.0 2.0 0.00 0.00 0.00 34 1024.5
20171119204547 64 177 1.0 2.0 0.00 0.00 0.00 34 1024.6
20171119203816 63 169 6.0 4.0 0.00 0.00 0.00 32 1024.7
20171119203049 63 150 2.0 5.0 0.00 0.00 0.00 33 1025.0
20171119202323 63 203 0.0 3.0 0.00 0.00 0.00 36 1025.1
20171119201555 63 250 4.0 4.0 0.00 0.00 0.00 33 1025.3
20171119200819 63 155 5.0 7.0 0.00 0.00 0.00 33 1025.3
20171119195325 62 170 3.0 3.0 0.00 0.00 0.00 34 1025.8
20171119194559 62 180 8.0 6.0 0.00 0.00 0.00 35 1025.8
20171119193824 62 239 3.0 4.0 0.00 0.00 0.00 33 1025.9
20171119193058 62 225 5.0 2.0 0.00 0.00 0.00 36 1025.9
20171119192331 62 229 3.0 2.0 0.00 0.00 0.00 34 1026.1
20171119191604 62 225 7.0 8.0 0.00 0.00 0.00 35 1026.1
20171119190833 62 235 1.0 3.0 0.00 0.00 0.00 38 1026.3
20171119185537 61 263 1.0 5.0 0.00 0.00 0.00 40 1026.5
20171119185340 61 263 1.0 5.0 0.00 0.00 0.00 40 1026.5
20171119184613 61 263 3.0 1.0 0.00 0.00 0.00 37 1026.8
20171119183840 61 205 5.0 4.0 0.00 0.00 0.00 37 1027.0
20171119183114 62 242 5.0 6.0 0.00 0.00 0.00 37 1027.1
20171119182347 61 287 2.0 7.0 0.00 0.00 0.00 37 1027.1
20171119181619 61 225 5.0 5.0 0.00 0.00 0.00 38 1027.4
20171119180849 61 260 2.0 2.0 0.00 0.00 0.00 37 1027.6
20171119180121 61 318 2.0 2.0 0.00 0.00 0.00 38 1027.9
20171119175355 61 328 2.0 2.0 0.00 0.00 0.00 39 1028.1
20171119174628 60 276 5.0 0.0 0.00 0.00 0.00 37 1028.3
20171119173131 60 224 5.0 5.0 0.00 0.00 0.00 41 1028.6
20171119172404 59 188 3.0 3.0 0.00 0.00 0.00 42 1028.8
20171119170905 58 276 2.0 4.0 0.00 0.00 0.00 48 1028.9
20171119170138 58 217 2.0 4.0 0.00 0.00 0.00 53 1029.0
20171119165411 58 238 3.0 5.0 0.00 0.00 0.00 50 1029.1
20171119164644 58 35 2.0 1.0 0.00 0.00 0.00 53 1029.2
20171119163913 57 260 3.0 3.0 0.00 0.00 0.00 52 1029.3
20171119163145 56 221 0.0 1.0 0.00 0.00 0.00 56 1029.5
20171119162418 55 288 4.0 3.0 0.00 0.00 0.00 57 1029.5
20171119161652 55 300 1.0 0.0 0.00 0.00 0.00 62 1029.4
20171119160920 54 290 4.0 3.0 0.00 0.00 0.00 65 1029.5
20171119160154 54 325 3.0 3.0 0.00 0.00 0.00 67 1029.6
20171119154659 52 232 2.0 3.0 0.00 0.00 0.00 70 1029.8
20171119153928 51 343 3.0 2.0 0.00 0.00 0.00 71 1029.7
20171119153201 50 294 3.0 4.0 0.00 0.00 0.00 73 1029.8
20171119152434 49 295 3.0 4.0 0.00 0.00 0.00 75 1029.9
20171119151706 48 281 5.0 5.0 0.00 0.00 0.00 75 1029.8
20171119150922 47 342 2.0 2.0 0.00 0.00 0.00 81 1029.8
20171119150153 47 312 4.0 5.0 0.00 0.00 0.00 79 1029.7
20171119144650 46 290 2.0 1.0 0.00 0.00 0.00 85 1029.7
20171119143915 45 305 3.0 3.0 0.00 0.00 0.00 85 1029.6
20171119143148 44 305 4.0 4.0 0.00 0.00 0.00 84 1029.5
20171119142422 44 277 4.0 3.0 0.00 0.00 0.00 85 1029.3
20171119141650 44 316 3.0 2.0 0.00 0.00 0.00 85 1029.4
20171119140917 43 329 3.0 2.0 0.00 0.00 0.00 86 1029.3
20171119140145 43 325 4.0 3.0 0.00 0.00 0.00 87 1029.1
20171119135418 43 297 2.0 4.0 0.00 0.00 0.00 87 1029.0
20171119134652 43 294 3.0 4.0 0.00 0.00 0.00 87 1028.9
20171119133917 42 312 3.0 3.0 0.00 0.00 0.00 88 1028.8
20171119133147 42 323 2.0 1.0 0.00 0.00 0.00 89 1028.6
20171119132417 41 291 2.0 3.0 0.00 0.00 0.00 90 1028.4
20171119131651 41 297 2.0 2.0 0.00 0.00 0.00 91 1028.4
20171119130917 41 257 0.0 0.0 0.00 0.00 0.00 90 1028.4
20171119130143 41 294 2.0 2.0 0.00 0.00 0.00 90 1028.3
20171119125417 41 271 1.0 0.0 0.00 0.00 0.00 90 1028.2
20171119124647 41 270 0.0 0.0 0.00 0.00 0.00 90 1028.1
20171119123914 41 330 2.0 1.0 0.00 0.00 0.00 89 1028.2
20171119123135 41 288 2.0 3.0 0.00 0.00 0.00 90 1028.1
20171119122409 41 307 2.0 2.0 0.00 0.00 0.00 90 1028.0
20171119121641 41 266 0.0 1.0 0.00 0.00 0.00 88 1027.9
20171119120905 42 4 0.0 0.0 0.00 0.00 0.00 87 1027.7
20171119120133 42 262 0.0 0.0 0.00 0.00 0.00 87 1027.7
20171119115406 42 215 0.0 1.0 0.00 0.00 0.00 88 1027.6
20171119114635 42 288 1.0 1.0 0.00 0.00 0.00 87 1027.6
20171119113134 42 328 0.0 3.0 0.00 0.00 0.00 86 1027.5
20171119112408 42 260 0.0 2.0 0.00 0.00 0.00 84 1027.4
20171119111634 42 210 2.0 0.0 0.00 0.00 0.00 86 1027.7
20171119110133 43 233 3.0 1.0 0.00 0.00 0.00 85 1027.3
20171119105404 43 239 1.0 1.0 0.00 0.00 0.00 84 1027.2
20171119104635 43 263 3.0 2.0 0.00 0.00 0.00 83 1027.2
20171119103857 43 285 2.0 0.0 0.00 0.00 0.00 83 1027.1
20171119103131 43 300 3.0 3.0 0.00 0.00 0.00 83 1027.1
20171119102404 44 332 3.0 5.0 0.00 0.00 0.00 82 1027.0
20171119101634 44 312 3.0 6.0 0.00 0.00 0.00 82 1027.0
20171119100902 43 301 4.0 5.0 0.00 0.00 0.00 81 1027.0
20171119100135 43 340 4.0 3.0 0.00 0.00 0.00 82 1026.9
20171119095409 44 304 4.0 5.0 0.00 0.00 0.00 81 1027.0
20171119094642 44 311 3.0 7.0 0.00 0.00 0.00 81 1027.0